| time (UTC) | temp F | wind direction | speed MPH | gust MPH | rain 1hr in | rain 24hr in | rain mn in | humidity % | barometer mb |
| 20260503203315 | 57 | 208 | 2.0 | 6.0 | 0.00 | 0.00 | 0.00 | 44 | 1011.8 |
| 20260503202811 | 57 | 245 | 2.0 | 5.0 | 0.00 | 0.00 | 0.00 | 45 | 1011.9 |
| 20260503202309 | 58 | 214 | 4.0 | 5.0 | 0.00 | 0.00 | 0.00 | 44 | 1011.9 |
| 20260503201807 | 57 | 204 | 6.0 | 8.0 | 0.00 | 0.00 | 0.00 | 45 | 1012.1 |
| 20260503201304 | 58 | 210 | 2.0 | 6.0 | 0.00 | 0.00 | 0.00 | 44 | 1012.1 |
| 20260503200801 | 60 | 162 | 2.0 | 3.0 | 0.00 | 0.00 | 0.00 | 39 | 1012.3 |
| 20260503200257 | 59 | 197 | 3.0 | 6.0 | 0.00 | 0.00 | 0.00 | 41 | 1012.4 |
| 20260503195755 | 58 | 200 | 2.0 | 6.0 | 0.00 | 0.00 | 0.00 | 41 | 1012.5 |
| 20260503195251 | 58 | 229 | 2.0 | 5.0 | 0.00 | 0.00 | 0.00 | 44 | 1012.4 |
| 20260503194749 | 60 | 205 | 2.0 | 5.0 | 0.00 | 0.00 | 0.00 | 43 | 1012.6 |
| 20260503194244 | 60 | 202 | 2.0 | 6.0 | 0.00 | 0.00 | 0.00 | 44 | 1012.6 |
| 20260503193741 | 58 | 194 | 4.0 | 5.0 | 0.00 | 0.00 | 0.00 | 43 | 1012.6 |
| 20260503193237 | 59 | 242 | 3.0 | 9.0 | 0.00 | 0.00 | 0.00 | 39 | 1012.6 |
| 20260503192732 | 57 | 222 | 3.0 | 8.0 | 0.00 | 0.00 | 0.00 | 42 | 1012.8 |
| 20260503192228 | 56 | 247 | 3.0 | 5.0 | 0.00 | 0.00 | 0.00 | 45 | 1012.8 |
| 20260503191725 | 57 | 200 | 3.0 | 11.0 | 0.00 | 0.00 | 0.00 | 42 | 1012.9 |
| 20260503191222 | 56 | 201 | 4.0 | 9.0 | 0.00 | 0.00 | 0.00 | 43 | 1013.0 |
| 20260503190719 | 56 | 312 | 2.0 | 8.0 | 0.00 | 0.00 | 0.00 | 43 | 1013.0 |
| 20260503190215 | 58 | 241 | 2.0 | 5.0 | 0.00 | 0.00 | 0.00 | 44 | 1013.0 |
| 20260503185713 | 58 | 235 | 6.0 | 11.0 | 0.00 | 0.00 | 0.00 | 41 | 1013.1 |
| 20260503185208 | 57 | 203 | 4.0 | 9.0 | 0.00 | 0.00 | 0.00 | 43 | 1013.2 |
| 20260503184703 | 57 | 209 | 4.0 | 5.0 | 0.00 | 0.00 | 0.00 | 43 | 1013.3 |
| 20260503184200 | 57 | 341 | 7.0 | 9.0 | 0.00 | 0.00 | 0.00 | 43 | 1013.5 |
| 20260503183656 | 56 | 213 | 2.0 | 11.0 | 0.00 | 0.00 | 0.00 | 44 | 1013.4 |
| 20260503183153 | 56 | 231 | 6.0 | 9.0 | 0.00 | 0.00 | 0.00 | 44 | 1013.4 |
| 20260503182651 | 54 | 215 | 7.0 | 11.0 | 0.00 | 0.00 | 0.00 | 45 | 1013.5 |
| 20260503182150 | 55 | 232 | 2.0 | 5.0 | 0.00 | 0.00 | 0.00 | 45 | 1013.4 |
| 20260503181646 | 55 | 218 | 2.0 | 6.0 | 0.00 | 0.00 | 0.00 | 45 | 1013.7 |
| 20260503181143 | 56 | 261 | 3.0 | 5.0 | 0.00 | 0.00 | 0.00 | 46 | 1013.6 |
| 20260503180640 | 55 | 159 | 2.0 | 5.0 | 0.00 | 0.00 | 0.00 | 45 | 1013.6 |
| 20260503180138 | 56 | 173 | 4.0 | 6.0 | 0.00 | 0.00 | 0.00 | 42 | 1013.8 |
| 20260503175634 | 55 | 188 | 3.0 | 9.0 | 0.00 | 0.00 | 0.00 | 43 | 1013.8 |
| 20260503175132 | 55 | 53 | 7.0 | 11.0 | 0.00 | 0.00 | 0.00 | 43 | 1013.7 |
| 20260503174628 | 54 | 206 | 4.0 | 6.0 | 0.00 | 0.00 | 0.00 | 45 | 1013.9 |
| 20260503174125 | 54 | 222 | 6.0 | 11.0 | 0.00 | 0.00 | 0.00 | 46 | 1013.9 |
| 20260503173620 | 55 | 221 | 5.0 | 8.0 | 0.00 | 0.00 | 0.00 | 44 | 1013.9 |
| 20260503173117 | 55 | 268 | 2.0 | 8.0 | 0.00 | 0.00 | 0.00 | 44 | 1014.0 |
| 20260503172614 | 56 | 219 | 6.0 | 11.0 | 0.00 | 0.00 | 0.00 | 44 | 1014.0 |
| 20260503172111 | 56 | 277 | 3.0 | 9.0 | 0.00 | 0.00 | 0.00 | 44 | 1014.0 |
| 20260503171608 | 55 | 233 | 4.0 | 6.0 | 0.00 | 0.00 | 0.00 | 44 | 1014.1 |
| 20260503171105 | 56 | 202 | 6.0 | 9.0 | 0.00 | 0.00 | 0.00 | 40 | 1014.2 |
| 20260503170556 | 55 | 200 | 3.0 | 6.0 | 0.00 | 0.00 | 0.00 | 41 | 1014.3 |
| 20260503150948 | 50 | 221 | 6.0 | 8.0 | 0.00 | 0.00 | 0.00 | 45 | 1015.3 |
| 20260503150444 | 50 | 105 | 7.0 | 8.0 | 0.00 | 0.00 | 0.00 | 46 | 1015.3 |
| 20260503131331 | 41 | 176 | 0.0 | 3.0 | 0.00 | 0.00 | 0.00 | 70 | 1016.0 |
| 20260503130829 | 41 | 190 | 1.0 | 6.0 | 0.00 | 0.00 | 0.00 | 72 | 1015.7 |
| 20260503130326 | 40 | 208 | 2.0 | 3.0 | 0.00 | 0.00 | 0.00 | 73 | 1015.8 |
| 20260503110720 | 33 | 150 | 0.0 | 0.0 | 0.00 | 0.00 | 0.00 | 92 | 1015.2 |
| 20260503110217 | 33 | 150 | 0.0 | 0.0 | 0.00 | 0.00 | 0.00 | 96 | 1015.1 |
| 20260503100144 | 30 | 149 | 0.0 | 0.0 | 0.00 | 0.00 | 0.00 | 97 | 1014.8 |
| 20260503081538 | 29 | 149 | 0.0 | 0.0 | 0.00 | 0.00 | 0.00 | 97 | 1014.7 |
| 20260503081036 | 29 | 148 | 0.0 | 0.0 | 0.00 | 0.00 | 0.00 | 97 | 1014.7 |
| 20260503080532 | 29 | 150 | 0.0 | 0.0 | 0.00 | 0.00 | 0.00 | 96 | 1014.7 |
| 20260503072505 | 30 | 152 | 0.0 | 0.0 | 0.00 | 0.00 | 0.00 | 96 | 1014.7 |
| 20260503072003 | 30 | 152 | 0.0 | 0.0 | 0.00 | 0.00 | 0.00 | 96 | 1014.7 |
| 20260503071500 | 30 | 153 | 0.0 | 0.0 | 0.00 | 0.00 | 0.00 | 95 | 1014.7 |
| 20260503070955 | 30 | 153 | 0.0 | 0.0 | 0.00 | 0.00 | 0.00 | 95 | 1014.6 |
| 20260503070453 | 30 | 151 | 0.0 | 0.0 | 0.00 | 0.00 | 0.00 | 95 | 1014.6 |
| 20260503054906 | 32 | 172 | 0.0 | 0.0 | 0.00 | 0.00 | 0.00 | 90 | 1014.9 |
| 20260503054402 | 32 | 172 | 0.0 | 0.0 | 0.00 | 0.00 | 0.00 | 90 | 1015.1 |
| 20260503053900 | 32 | 172 | 0.0 | 0.0 | 0.00 | 0.00 | 0.00 | 89 | 1015.2 |
| 20260503053358 | 32 | 172 | 0.0 | 0.0 | 0.00 | 0.00 | 0.00 | 88 | 1015.2 |
| 20260503052853 | 33 | 172 | 0.0 | 0.0 | 0.00 | 0.00 | 0.00 | 87 | 1015.2 |
| 20260503052351 | 33 | 173 | 0.0 | 0.0 | 0.00 | 0.00 | 0.00 | 87 | 1015.3 |
| 20260503051847 | 33 | 173 | 0.0 | 0.0 | 0.00 | 0.00 | 0.00 | 85 | 1015.2 |
| 20260503051343 | 34 | 173 | 0.0 | 0.0 | 0.00 | 0.00 | 0.00 | 84 | 1015.1 |
| 20260503050840 | 34 | 173 | 0.0 | 0.0 | 0.00 | 0.00 | 0.00 | 84 | 1015.2 |
| 20260503050336 | 34 | 173 | 0.0 | 0.0 | 0.00 | 0.00 | 0.00 | 84 | 1015.3 |
| 20260503045834 | 34 | 173 | 0.0 | 0.0 | 0.00 | 0.00 | 0.00 | 83 | 1015.3 |
| 20260503045332 | 34 | 173 | 0.0 | 0.0 | 0.00 | 0.00 | 0.00 | 83 | 1015.4 |
| 20260503044828 | 35 | 173 | 0.0 | 0.0 | 0.00 | 0.00 | 0.00 | 83 | 1015.4 |
| 20260503044325 | 35 | 173 | 0.0 | 0.0 | 0.00 | 0.00 | 0.00 | 83 | 1015.3 |
| 20260503043822 | 35 | 173 | 0.0 | 0.0 | 0.00 | 0.00 | 0.00 | 82 | 1015.4 |
| 20260503043319 | 36 | 173 | 0.0 | 0.0 | 0.00 | 0.00 | 0.00 | 82 | 1015.3 |
| 20260503042815 | 36 | 173 | 0.0 | 0.0 | 0.00 | 0.00 | 0.00 | 81 | 1015.4 |
| 20260503042312 | 36 | 173 | 0.0 | 0.0 | 0.00 | 0.00 | 0.00 | 81 | 1015.3 |
| 20260503041808 | 36 | 173 | 0.0 | 0.0 | 0.00 | 0.00 | 0.00 | 82 | 1015.3 |
| 20260503041306 | 36 | 174 | 0.0 | 0.0 | 0.00 | 0.00 | 0.00 | 83 | 1015.3 |
| 20260503040803 | 36 | 173 | 0.0 | 0.0 | 0.00 | 0.00 | 0.00 | 83 | 1015.4 |
| 20260503040301 | 36 | 174 | 0.0 | 0.0 | 0.00 | 0.00 | 0.00 | 83 | 1015.4 |
| 20260503035757 | 36 | 174 | 0.0 | 0.0 | 0.00 | 0.06 | 0.06 | 81 | 1015.4 |
| 20260503035255 | 36 | 174 | 0.0 | 0.0 | 0.00 | 0.06 | 0.06 | 81 | 1015.4 |
| 20260503034752 | 36 | 174 | 0.0 | 0.0 | 0.00 | 0.06 | 0.06 | 82 | 1015.4 |
| 20260503034249 | 36 | 173 | 0.0 | 0.0 | 0.00 | 0.06 | 0.06 | 82 | 1015.5 |
| 20260503033746 | 36 | 174 | 0.0 | 0.0 | 0.00 | 0.06 | 0.06 | 83 | 1015.5 |
| 20260503033244 | 36 | 174 | 0.0 | 0.0 | 0.00 | 0.06 | 0.06 | 83 | 1015.3 |
| 20260503032742 | 36 | 174 | 0.0 | 0.0 | 0.00 | 0.06 | 0.06 | 83 | 1015.5 |
| 20260503032240 | 36 | 174 | 0.0 | 0.0 | 0.00 | 0.06 | 0.06 | 82 | 1015.5 |
| 20260503031737 | 36 | 174 | 0.0 | 0.0 | 0.00 | 0.06 | 0.06 | 82 | 1015.7 |
| 20260503031235 | 36 | 174 | 0.0 | 0.0 | 0.00 | 0.06 | 0.06 | 80 | 1015.5 |
| 20260503030731 | 36 | 174 | 0.0 | 0.0 | 0.00 | 0.06 | 0.06 | 79 | 1015.4 |
| 20260503030227 | 36 | 174 | 0.0 | 0.0 | 0.00 | 0.06 | 0.06 | 79 | 1015.6 |
| 20260503025724 | 37 | 174 | 0.0 | 0.0 | 0.00 | 0.06 | 0.06 | 78 | 1015.6 |
| 20260503025222 | 37 | 174 | 0.0 | 0.0 | 0.00 | 0.06 | 0.06 | 78 | 1015.5 |
| 20260503024718 | 37 | 174 | 0.0 | 0.0 | 0.00 | 0.06 | 0.06 | 79 | 1015.5 |
| 20260503024216 | 37 | 174 | 0.0 | 0.0 | 0.00 | 0.06 | 0.06 | 80 | 1015.7 |
| 20260503023712 | 37 | 174 | 0.0 | 0.0 | 0.00 | 0.06 | 0.06 | 78 | 1015.9 |
| 20260503023204 | 37 | 174 | 0.0 | 0.0 | 0.00 | 0.06 | 0.06 | 77 | 1015.9 |
| 20260503022700 | 37 | 167 | 0.0 | 0.0 | 0.00 | 0.06 | 0.06 | 77 | 1015.7 |
| 20260503022159 | 37 | 167 | 0.0 | 0.0 | 0.00 | 0.06 | 0.06 | 75 | 1015.9 |
| 20260503021657 | 37 | 167 | 0.0 | 0.0 | 0.00 | 0.06 | 0.06 | 77 | 1015.9 |
| 20260503021153 | 37 | 149 | 0.0 | 0.0 | 0.00 | 0.06 | 0.06 | 77 | 1015.7 |
| 20260503020651 | 37 | 149 | 0.0 | 0.0 | 0.00 | 0.06 | 0.06 | 76 | 1015.9 |
| 20260503020148 | 37 | 149 | 0.0 | 0.0 | 0.00 | 0.06 | 0.06 | 75 | 1015.7 |
| 20260503015644 | 37 | 149 | 0.0 | 0.0 | 0.00 | 0.06 | 0.06 | 75 | 1015.7 |
| 20260503015142 | 37 | 149 | 0.0 | 0.0 | 0.00 | 0.06 | 0.06 | 76 | 1015.8 |
| 20260503014637 | 37 | 149 | 0.0 | 0.0 | 0.00 | 0.06 | 0.06 | 78 | 1015.7 |
| 20260503014135 | 37 | 149 | 0.0 | 0.0 | 0.00 | 0.06 | 0.06 | 76 | 1015.6 |
| 20260503013632 | 37 | 149 | 0.0 | 0.0 | 0.00 | 0.06 | 0.06 | 75 | 1015.7 |
| 20260503013130 | 37 | 149 | 0.0 | 0.0 | 0.00 | 0.06 | 0.06 | 74 | 1015.6 |
| 20260503012627 | 37 | 149 | 0.0 | 0.0 | 0.00 | 0.06 | 0.06 | 75 | 1015.7 |
| 20260503012124 | 37 | 149 | 0.0 | 0.0 | 0.00 | 0.06 | 0.06 | 74 | 1015.7 |
| 20260503011621 | 37 | 147 | 0.0 | 0.0 | 0.00 | 0.06 | 0.06 | 74 | 1015.4 |
| 20260503011118 | 37 | 173 | 0.0 | 0.0 | 0.00 | 0.06 | 0.06 | 72 | 1015.7 |
| 20260503010614 | 37 | 174 | 0.0 | 0.0 | 0.00 | 0.06 | 0.06 | 72 | 1015.5 |
| 20260503010112 | 38 | 174 | 0.0 | 0.0 | 0.00 | 0.06 | 0.06 | 73 | 1015.5 |
| 20260503005608 | 38 | 174 | 0.0 | 0.0 | 0.00 | 0.06 | 0.06 | 72 | 1015.6 |
| 20260503005106 | 38 | 154 | 0.0 | 2.0 | 0.00 | 0.06 | 0.06 | 71 | 1015.5 |
| 20260503004601 | 38 | 135 | 0.0 | 0.0 | 0.00 | 0.06 | 0.06 | 70 | 1015.4 |
| 20260503004100 | 38 | 134 | 0.0 | 0.0 | 0.00 | 0.06 | 0.06 | 71 | 1015.5 |
| 20260503003556 | 38 | 134 | 0.0 | 0.0 | 0.00 | 0.06 | 0.06 | 71 | 1015.5 |
| 20260503003053 | 38 | 134 | 0.0 | 0.0 | 0.00 | 0.06 | 0.06 | 71 | 1015.3 |
| 20260503002550 | 38 | 181 | 0.0 | 0.0 | 0.00 | 0.06 | 0.06 | 70 | 1015.6 |
| 20260503002047 | 39 | 193 | 0.0 | 0.0 | 0.00 | 0.06 | 0.06 | 72 | 1015.3 |
| 20260503001543 | 39 | 202 | 0.0 | 2.0 | 0.00 | 0.06 | 0.06 | 66 | 1015.6 |
| 20260503001041 | 39 | 182 | 0.0 | 0.0 | 0.00 | 0.06 | 0.06 | 69 | 1015.3 |
| 20260503000538 | 39 | 191 | 0.0 | 0.0 | 0.00 | 0.06 | 0.06 | 69 | 1015.3 |
| 20260503000035 | 39 | 196 | 2.0 | 2.0 | 0.00 | 0.06 | 0.06 | 68 | 1015.3 |
| 20260502235532 | 39 | 193 | 0.0 | 2.0 | 0.00 | 0.06 | 0.06 | 70 | 1015.1 |
| 20260502235030 | 39 | 170 | 0.0 | 2.0 | 0.00 | 0.06 | 0.06 | 68 | 1015.3 |
| 20260502234525 | 39 | 168 | 0.0 | 2.0 | 0.00 | 0.06 | 0.06 | 68 | 1015.4 |
| 20260502234023 | 39 | 161 | 0.0 | 2.0 | 0.00 | 0.06 | 0.06 | 67 | 1015.3 |
| 20260502233518 | 39 | 164 | 0.0 | 2.0 | 0.00 | 0.06 | 0.06 | 68 | 1015.4 |
| 20260502233016 | 39 | 115 | 2.0 | 3.0 | 0.00 | 0.06 | 0.06 | 64 | 1015.2 |
| 20260502232512 | 39 | 133 | 0.0 | 2.0 | 0.00 | 0.06 | 0.06 | 66 | 1015.3 |
| 20260502232009 | 40 | 125 | 0.0 | 0.0 | 0.00 | 0.06 | 0.06 | 66 | 1015.2 |
| 20260502231506 | 40 | 73 | 2.0 | 3.0 | 0.00 | 0.06 | 0.06 | 63 | 1015.1 |
| 20260502231004 | 40 | 159 | 0.0 | 3.0 | 0.00 | 0.06 | 0.06 | 63 | 1015.2 |
| 20260502230502 | 40 | 189 | 0.0 | 0.0 | 0.00 | 0.06 | 0.06 | 63 | 1015.1 |
| 20260502230000 | 40 | 55 | 3.0 | 3.0 | 0.00 | 0.06 | 0.06 | 62 | 1015.3 |
| 20260502225455 | 40 | 132 | 1.0 | 2.0 | 0.00 | 0.06 | 0.06 | 62 | 1015.3 |
| 20260502224952 | 40 | 163 | 2.0 | 3.0 | 0.00 | 0.06 | 0.06 | 61 | 1015.2 |
| 20260502224448 | 40 | 139 | 0.0 | 2.0 | 0.00 | 0.06 | 0.06 | 61 | 1015.2 |
| 20260502223945 | 40 | 78 | 2.0 | 3.0 | 0.00 | 0.06 | 0.06 | 62 | 1015.1 |
| 20260502223443 | 40 | 214 | 0.0 | 2.0 | 0.00 | 0.06 | 0.06 | 62 | 1015.2 |
| 20260502222941 | 40 | 151 | 0.0 | 6.0 | 0.00 | 0.06 | 0.06 | 63 | 1015.2 |
| 20260502222439 | 40 | 358 | 0.0 | 0.0 | 0.00 | 0.06 | 0.06 | 64 | 1015.1 |
| 20260502221934 | 40 | 358 | 0.0 | 6.0 | 0.00 | 0.06 | 0.06 | 63 | 1015.3 |
| 20260502221431 | 41 | 181 | 0.0 | 2.0 | 0.00 | 0.06 | 0.06 | 62 | 1014.9 |
| 20260502220928 | 41 | 153 | 0.0 | 2.0 | 0.00 | 0.06 | 0.06 | 65 | 1015.2 |
| 20260502220423 | 41 | 108 | 0.0 | 2.0 | 0.00 | 0.06 | 0.06 | 62 | 1015.1 |
| 20260502215920 | 41 | 134 | 1.0 | 2.0 | 0.00 | 0.06 | 0.06 | 64 | 1015.1 |
| 20260502215418 | 41 | 171 | 0.0 | 5.0 | 0.00 | 0.06 | 0.06 | 63 | 1014.9 |
| 20260502214914 | 41 | 125 | 0.0 | 2.0 | 0.00 | 0.06 | 0.06 | 66 | 1014.9 |
| 20260502214411 | 41 | 124 | 0.0 | 2.0 | 0.00 | 0.06 | 0.06 | 64 | 1014.7 |
| 20260502213908 | 41 | 289 | 1.0 | 2.0 | 0.00 | 0.06 | 0.06 | 65 | 1014.6 |
| 20260502213405 | 41 | 143 | 0.0 | 2.0 | 0.00 | 0.06 | 0.06 | 59 | 1014.8 |
| 20260502212904 | 41 | 122 | 1.0 | 3.0 | 0.00 | 0.06 | 0.06 | 66 | 1014.6 |
| 20260502212402 | 41 | 36 | 2.0 | 3.0 | 0.00 | 0.06 | 0.06 | 66 | 1014.6 |
| 20260502211859 | 41 | 122 | 0.0 | 2.0 | 0.00 | 0.06 | 0.06 | 67 | 1014.5 |
| 20260502211359 | 42 | 36 | 0.0 | 3.0 | 0.00 | 0.06 | 0.06 | 63 | 1014.6 |
| 20260502210857 | 42 | 126 | 0.0 | 0.0 | 0.00 | 0.06 | 0.06 | 61 | 1014.6 |
| 20260502210354 | 42 | 81 | 2.0 | 3.0 | 0.00 | 0.06 | 0.06 | 65 | 1014.4 |
| 20260502205851 | 42 | 169 | 0.0 | 0.0 | 0.00 | 0.06 | 0.06 | 62 | 1014.7 |
| 20260502205347 | 42 | 162 | 1.0 | 2.0 | 0.00 | 0.06 | 0.06 | 58 | 1014.6 |
| 20260502204845 | 42 | 191 | 1.0 | 2.0 | 0.00 | 0.06 | 0.06 | 62 | 1014.7 |
| 20260502204342 | 43 | 222 | 2.0 | 3.0 | 0.00 | 0.06 | 0.06 | 60 | 1014.5 |
| 20260502203839 | 43 | 186 | 0.0 | 3.0 | 0.00 | 0.06 | 0.06 | 60 | 1014.5 |